This is the latest recevied weather packets stored in our database for station/object SA7AHC. If no packets are shown the sender has not sent any weather packets the latest 10 day(s).
| Time | Temp. | Humidity | Pressure | Rain* | Wind** | Luminosity | Snow |
|---|---|---|---|---|---|---|---|
| 1778089003 | 9.44° C | 44% | 1012.9 hPa | 0 mm | - | 37 W/m² | - |
| 1778088395 | 9.44° C | 42% | 1012.9 hPa | 0 mm | - | 51 W/m² | - |
| 1778087794 | 10° C | 42% | 1012.9 hPa | 0 mm | - | 74 W/m² | - |
| 1778087206 | 10.56° C | 38% | 1012.7 hPa | 0 mm | - | 91 W/m² | - |
| 1778086592 | 11.11° C | 39% | 1012.8 hPa | 0 mm | - | 213 W/m² | - |
| 1778085995 | 11.11° C | 39% | 1012.8 hPa | 0 mm | - | 225 W/m² | - |
| 1778085390 | 11.11° C | 40% | 1012.9 hPa | 0 mm | - | 290 W/m² | - |
| 1778084793 | 11.11° C | 39% | 1012.9 hPa | 0 mm | - | 230 W/m² | - |
| 1778084187 | 11.11° C | 41% | 1012.9 hPa | 0 mm | - | 308 W/m² | - |
| 1778083588 | 11.11° C | 42% | 1012.9 hPa | 0 mm | - | 241 W/m² | - |
| 1778082982 | 11.67° C | 41% | 1012.9 hPa | 0 mm | - | 181 W/m² | - |
| 1778082383 | 11.67° C | 39% | 1012.8 hPa | 0 mm | - | 260 W/m² | - |
| 1778081784 | 12.22° C | 41% | 1013 hPa | 0 mm | - | 262 W/m² | - |
| 1778081181 | 12.22° C | 39% | 1013 hPa | 0 mm | - | 318 W/m² | - |
| 1778080579 | 12.22° C | 39% | 1013 hPa | 0 mm | - | 329 W/m² | - |
| 1778079970 | 12.22° C | 39% | 1013.1 hPa | 0 mm | - | 336 W/m² | - |
| 1778079368 | 12.22° C | 38% | 1013.1 hPa | 0 mm | - | 301 W/m² | - |
| 1778078770 | 12.22° C | 39% | 1013.1 hPa | 0 mm | - | 415 W/m² | - |
| 1778078161 | 12.22° C | 38% | 1013.1 hPa | 0 mm | - | 374 W/m² | - |
| 1778077569 | 12.78° C | 37% | 1013.1 hPa | 0 mm | - | 311 W/m² | - |
| 1778076965 | 12.78° C | 36% | 1013.1 hPa | 0 mm | - | 420 W/m² | - |
| 1778076364 | 12.78° C | 39% | 1013.1 hPa | 0 mm | - | 482 W/m² | - |
| 1778075768 | 12.78° C | 38% | 1013 hPa | 0 mm | - | 394 W/m² | - |
| 1778075159 | 12.78° C | 39% | 1012.8 hPa | 0 mm | - | 436 W/m² | - |
| 1778074551 | 12.22° C | 38% | 1012.7 hPa | 0 mm | - | 380 W/m² | - |
* Rain latest hour (hover to see other rain measurements)
** Current wind speed in m/s (hover to see current wind gust speed)